Location: Davayat
(45.9471°N, 3.1105°E)
Time: 18:14:46
(UTC+00:00)

H-2A R/B - Pass Details

Date: 01 December 2020
Orbit: 733 x 836 km, 98.2° (Epoch: 17 January)

Event Time Altitude Azimuth Distance (km) Brightness Sun altitude
Rises 19:08:06 0° 180° (S) 3,319 5.3 -31.2°
Enters shadow 19:08:49 - 182° (S) 3,036 5.1 -31.4°
Exits shadow 19:16:03 47° 278° (W) 1,034 2.9 -32.6°
Drops below altitude 10° 19:20:35 10° 336° (NNW) 2,329 4.7 -33.4°
Sets 19:22:58 0° 342° (NNW) 3,245 5.5 -33.8°
